Annette Island, AK

7:26 PM AKDT on October 20, 2017 (GMT -0800)
Annette Island

Weather History for PANT - February, 2013

Change the Weather History Date:

Sunday, February 3, 2013

  Actual Average Record
Temperature  
Mean Temperature 39 °F 38 °F  
Max Temperature 45 °F 42 °F 60 °F (1977)
Min Temperature 33 °F 33 °F 9 °F (2004)
Degree Days  
Heating Degree Days 26 28  
Month to date heating degree days 68 84  
Since 1 July heating degree days 3892 3863  
Cooling Degree Days 0    
Month to date cooling degree days 0  
Year to date cooling degree days 0  
Moisture  
Dew Point 39 °F    
Average Humidity 0    
Maximum Humidity 0    
Minimum Humidity 0    
Precipitation  
Precipitation 0.91 in 0.28 in 2.21 in (1956)
Month to date precipitation 2.00 0.85  
Year to date precipitation 10.01 11.58  
Snow  
Snow 0.00 in 0.30 in 4.90 in (1968)
Month to date snowfall 0.0 0.8  
Since 1 July snowfall 11.9 20.1  
Snow Depth 0.00 in    
Sea Level Pressure  
Sea Level Pressure 29.90 in    
Wind  
Wind Speed 6 mph (South)    
Max Wind Speed 20 mph    
Max Gust Speed 32 mph    
Visibility 8 miles    
Events Rain    
T = Trace of Precipitation, MM = Missing Value Source: NWS Daily Summary

Daily Weather History Graph

Daily Weather History Graph

Search for Another Location

Airport or City:

Trip Planner

Search our weather history database for the weather conditions in past years. The results will help you decide how hot, cold, wet, or windy it might be!

Date:

Astronomy

Feb. 03, 2013 Rise Set
Actual Time 7:32 AM AKST 4:28 PM AKST
Civil Twilight 6:53 AM AKST 5:08 PM AKST
Nautical Twilight 6:09 AM AKST 5:51 PM AKST
Astronomical Twilight 5:27 AM AKST 6:33 PM AKST
Moon 1:12 AM AKST (2/3) 10:03 AM AKST (2/3)
Length of Visible Light 10h 14m
Length of Day
8h 55m
Waning Gibbous, 47% of the Moon is Illuminated
Feb 3
Waning Gibbous
Feb 9
New
Feb 17
First Quarter
Feb 25
Full
Mar 4
Last Quarter

Hourly Weather History & Observations

Time (AKST) Temp. Windchill Dew Point Humidity Pressure Visibility Wind Dir Wind Speed Gust Speed Precip Events Conditions
12:20 AM 42.8 °F 39.3 °F 39.2 °F 87% 30.03 in 10.0 mi SE 5.8 mph - 0.00 in Rain Light Rain
12:53 AM 43.0 °F 40.3 °F 39.9 °F 89% 30.04 in 10.0 mi Variable 4.6 mph - 0.01 in Rain Light Rain
1:02 AM 42.8 °F 39.3 °F 39.2 °F 87% 30.03 in 9.0 mi SSE 5.8 mph - 0.01 in Rain Light Rain
1:36 AM 42.8 °F 38.6 °F 39.2 °F 87% 30.02 in 10.0 mi Variable 6.9 mph - 0.03 in Rain Light Rain
1:48 AM 42.8 °F 38.6 °F 39.2 °F 87% 30.02 in 10.0 mi SSE 6.9 mph - 0.03 in Rain Light Rain
1:53 AM 42.1 °F 37.7 °F 39.9 °F 92% 30.02 in 10.0 mi SSE 6.9 mph - 0.03 in Rain Light Rain
3:00 AM 42.8 °F 38.6 °F 39.2 °F 87% 29.98 in 8.0 mi SSE 6.9 mph - 0.01 in Rain Light Rain
3:07 AM 42.8 °F 37.5 °F 39.2 °F 87% 29.98 in 9.0 mi SE 9.2 mph - 0.02 in Rain Light Rain
3:53 AM 42.1 °F 37.7 °F 39.9 °F 92% 29.97 in 10.0 mi South 6.9 mph - 0.04 in Rain Light Rain
4:00 AM 42.8 °F 38.0 °F 39.2 °F 87% 29.97 in 10.0 mi South 8.1 mph - 0.01 in Rain Light Rain
4:48 AM 42.8 °F 37.5 °F 39.2 °F 87% 29.94 in 10.0 mi SSE 9.2 mph - 0.05 in Rain Light Rain
4:53 AM 42.1 °F 37.1 °F 39.9 °F 92% 29.95 in 9.0 mi SSE 8.1 mph 17.3 mph 0.06 in Rain Light Rain
5:17 AM 42.8 °F 37.0 °F 41.0 °F 93% 29.92 in 8.0 mi SSE 10.4 mph 19.6 mph 0.02 in Rain Light Rain
5:43 AM 42.8 °F 35.4 °F 41.0 °F 93% 29.91 in 7.0 mi SSE 15.0 mph 21.9 mph 0.06 in Rain Rain
5:53 AM 43.0 °F 37.2 °F 41.0 °F 93% 29.91 in 6.0 mi SSE 10.4 mph 20.7 mph 0.08 in Rain Rain
6:18 AM 42.8 °F 36.6 °F 41.0 °F 93% 29.89 in 7.0 mi SSE 11.5 mph 21.9 mph 0.04 in Rain Light Rain
6:43 AM 42.8 °F 36.6 °F 41.0 °F 93% 29.88 in 7.0 mi SSE 11.5 mph 21.9 mph 0.09 in Rain Rain
6:53 AM 43.0 °F 36.4 °F 41.0 °F 93% 29.88 in 6.0 mi SSE 12.7 mph 19.6 mph 0.11 in Rain Rain
7:07 AM 44.6 °F 39.2 °F 42.8 °F 93% 29.87 in 4.0 mi South 10.4 mph 23.0 mph 0.05 in Rain Heavy Rain
7:30 AM 42.8 °F 35.8 °F 41.0 °F 93% 29.87 in 7.0 mi SSE 13.8 mph 23.0 mph 0.12 in Rain Rain
7:38 AM 42.8 °F 35.8 °F 39.2 °F 87% 29.87 in 7.0 mi SSE 13.8 mph 25.3 mph 0.13 in Rain Rain
7:53 AM 43.0 °F 35.7 °F 41.0 °F 93% 29.87 in 7.0 mi SSE 15.0 mph 20.7 mph 0.15 in Rain Light Rain
8:53 AM 44.1 °F 36.2 °F 41.0 °F 89% 29.84 in 3.0 mi SSE 18.4 mph 26.5 mph 0.11 in Rain Rain
8:59 AM 44.6 °F 36.9 °F 42.8 °F 93% 29.83 in 2.5 mi SSE 18.4 mph 26.5 mph 0.02 in Rain Rain
9:19 AM 44.6 °F 38.1 °F 42.8 °F 93% 29.83 in 3.0 mi SSE 13.8 mph 32.2 mph 0.10 in Rain Rain
9:28 AM 44.6 °F 39.7 °F 42.8 °F 93% 29.83 in 3.0 mi South 9.2 mph 27.6 mph 0.13 in Rain Rain
9:35 AM 44.6 °F 37.8 °F 42.8 °F 93% 29.83 in 3.0 mi SSE 15.0 mph 27.6 mph 0.16 in Rain Rain
9:53 AM 44.1 °F 37.7 °F 42.1 °F 93% 29.83 in 5.0 mi South 12.7 mph 21.9 mph 0.18 in Rain Light Rain
10:51 AM 42.8 °F 35.8 °F 41.0 °F 93% 29.81 in 6.0 mi South 13.8 mph 27.6 mph 0.07 in Rain Light Rain
10:53 AM 43.0 °F 36.8 °F 41.0 °F 93% 29.82 in 6.0 mi South 11.5 mph 27.6 mph 0.07 in Rain Light Rain
11:25 AM 42.8 °F 36.2 °F 41.0 °F 93% 29.81 in 10.0 mi South 12.7 mph 23.0 mph 0.03 in Rain Light Rain
11:50 AM 42.8 °F 35.4 °F 39.2 °F 87% 29.82 in 8.0 mi South 15.0 mph 24.2 mph 0.05 in Rain Light Rain
11:53 AM 43.0 °F 36.4 °F 39.9 °F 89% 29.82 in 8.0 mi South 12.7 mph 24.2 mph 0.05 in Rain Light Rain
12:23 PM 42.8 °F 38.6 °F 39.2 °F 87% 29.81 in 10.0 mi SSW 6.9 mph 18.4 mph 0.01 in Rain Light Rain
12:53 PM 43.0 °F 38.8 °F 37.9 °F 82% 29.82 in 10.0 mi SSW 6.9 mph - 0.01 in   Overcast
1:28 PM 42.8 °F 38.6 °F 39.2 °F 87% 29.82 in 10.0 mi SW 6.9 mph - N/A   Overcast
1:53 PM 43.0 °F 40.3 °F 39.0 °F 86% 29.84 in 10.0 mi Variable 4.6 mph - 0.00 in Rain Light Rain
2:53 PM 44.1 °F 41.5 °F 37.9 °F 79% 29.86 in 10.0 mi West 4.6 mph - 0.00 in   Partly Cloudy
3:53 PM 39.9 °F 35.1 °F 35.1 °F 83% 29.88 in 10.0 mi WSW 6.9 mph - 0.00 in Rain Light Rain
4:53 PM 37.0 °F - 35.1 °F 93% 29.89 in 10.0 mi Calm Calm - 0.00 in   Clear
5:53 PM 36.0 °F - 35.1 °F 97% 29.91 in 10.0 mi Calm Calm - N/A   Mostly Cloudy
6:53 PM 36.0 °F - 34.0 °F 93% 29.91 in 10.0 mi Calm Calm - N/A   Mostly Cloudy
7:53 PM 37.0 °F - 35.1 °F 93% 29.92 in 10.0 mi Calm Calm - N/A   Mostly Cloudy
8:53 PM 34.0 °F - 33.1 °F 96% 29.93 in 10.0 mi Calm Calm - N/A   Clear
9:53 PM 34.0 °F - 33.1 °F 96% 29.94 in 10.0 mi Calm Calm - N/A   Mostly Cloudy
10:53 PM 36.0 °F 33.3 °F 34.0 °F 93% 29.94 in 10.0 mi SW 3.5 mph - N/A   Mostly Cloudy
11:53 PM 37.0 °F - 35.1 °F 93% 29.96 in 10.0 mi Calm Calm - 0.00 in   Overcast